Change the Weather History Date:

Wednesday, December 5, 2012

  Actual Average Record
Temperature  
Mean Temperature 45 °F -  
Max Temperature 57 °F 42 °F 57 °F (2012)
Min Temperature 33 °F 19 °F -7 °F (2013)
Degree Days  
Heating Degree Days 20    
Moisture  
Dew Point 26 °F    
Average Humidity 46    
Maximum Humidity 70    
Minimum Humidity 33    
Precipitation  
Precipitation 0.00 in - - ()
Sea Level Pressure  
Sea Level Pressure 29.97 in    
Wind  
Wind Speed 5 mph (North)    
Max Wind Speed 21 mph    
Max Gust Speed 29 mph    
Visibility 10 miles    
Events      
Averages and records for this station are not official NWS values.
T = Trace of Precipitation, MM = Missing Value Source: NWS Daily Summary

Daily Weather History Graph

Daily Weather History Graph

Search for Another Location

Airport or City:

Trip Planner

Search our weather history database for the weather conditions in past years. The results will help you decide how hot, cold, wet, or windy it might be!

Date:

Astronomy

Dec. 05, 2012 Rise Set
Actual Time 7:08 AM MST 4:33 PM MST
Civil Twilight 6:37 AM MST 5:03 PM MST
Nautical Twilight 6:03 AM MST 5:37 PM MST
Astronomical Twilight 5:30 AM MST 6:10 PM MST
Moon 11:26 PM MST (12/5) 11:32 AM MST (12/5)
Length of Visible Light 10h 25m
Length of Day
9h 24m
Waning Gibbous, 59% of the Moon is Illuminated
Dec 5
Waning Gibbous
Dec 6
Last Quarter
Dec 13
New
Dec 19
First Quarter
Dec 28
Full

Hourly Weather History & Observations

Time (MST) Temp. Windchill Dew Point Humidity Pressure Visibility Wind Dir Wind Speed Gust Speed Precip Events Conditions
12:15 AM 35.6 °F 31.7 °F 19.4 °F 52% 30.17 in 10.0 mi SE 4.6 mph - N/A   Clear
12:35 AM 35.6 °F - 19.4 °F 52% 30.16 in 10.0 mi Calm Calm - N/A   Clear
12:55 AM 33.8 °F 30.8 °F 19.4 °F 56% 30.15 in 10.0 mi NNW 3.5 mph - N/A   Clear
1:15 AM 33.8 °F 27.7 °F 19.4 °F 56% 30.15 in 10.0 mi North 6.9 mph - N/A   Clear
2:15 AM 35.6 °F - 19.4 °F 52% 30.15 in 10.0 mi Calm Calm - N/A   Clear
2:35 AM 35.6 °F - 19.4 °F 52% 30.14 in 10.0 mi Calm Calm - N/A   Clear
2:55 AM 33.8 °F - 19.4 °F 56% 30.14 in 10.0 mi Calm Calm - N/A   Clear
3:15 AM 35.6 °F - 19.4 °F 52% 30.13 in 10.0 mi Calm Calm - N/A   Clear
3:35 AM 33.8 °F 29.6 °F 21.2 °F 60% 30.14 in 10.0 mi North 4.6 mph - N/A   Clear
3:55 AM 33.8 °F - 21.2 °F 60% 30.12 in 10.0 mi Calm Calm - N/A   Clear
4:15 AM 33.8 °F 30.8 °F 21.2 °F 60% 30.11 in 10.0 mi West 3.5 mph - N/A   Clear
4:35 AM 33.8 °F 26.4 °F 24.8 °F 70% 30.10 in 10.0 mi SW 9.2 mph - N/A   Clear
4:55 AM 35.6 °F 30.7 °F 24.8 °F 65% 30.10 in 10.0 mi NE 5.8 mph - N/A   Clear
5:15 AM 35.6 °F 29.2 °F 24.8 °F 65% 30.10 in 10.0 mi NNE 8.1 mph - N/A   Clear
5:35 AM 33.8 °F 30.8 °F 21.2 °F 60% 30.09 in 10.0 mi North 3.5 mph - N/A   Clear
5:55 AM 33.8 °F 30.8 °F 21.2 °F 60% 30.11 in 10.0 mi NNW 3.5 mph - N/A   Clear
7:35 AM 33.8 °F - 19.4 °F 56% 30.06 in 10.0 mi Calm Calm - N/A   Clear
7:55 AM 33.8 °F 29.6 °F 21.2 °F 60% 30.06 in 10.0 mi South 4.6 mph - N/A   Clear
8:15 AM 35.6 °F 29.9 °F 23.0 °F 60% 30.05 in 10.0 mi South 6.9 mph - N/A   Clear
8:35 AM 37.4 °F 33.8 °F 24.8 °F 60% 30.04 in 10.0 mi SE 4.6 mph - N/A   Clear
8:55 AM 37.4 °F 31.4 °F 24.8 °F 60% 30.03 in 10.0 mi SSE 8.1 mph - N/A   Clear
9:35 AM 42.8 °F 39.3 °F 26.6 °F 53% 30.01 in 10.0 mi SE 5.8 mph - N/A   Partly Cloudy
9:55 AM 42.8 °F 38.0 °F 26.6 °F 53% 30.01 in 10.0 mi NE 8.1 mph - N/A   Partly Cloudy
10:15 AM 44.6 °F 39.2 °F 26.6 °F 49% 30.00 in 10.0 mi NNE 10.4 mph - N/A   Clear
10:35 AM 46.4 °F 42.9 °F 26.6 °F 46% 29.99 in 10.0 mi North 6.9 mph - N/A   Clear
10:55 AM 48.2 °F - 26.6 °F 43% 29.97 in 10.0 mi North 4.6 mph - N/A   Clear
11:35 AM 53.6 °F - 28.4 °F 38% 29.94 in 10.0 mi East 6.9 mph - N/A   Clear
11:55 AM 53.6 °F - 28.4 °F 38% 29.92 in 10.0 mi North 4.6 mph - N/A   Clear
12:15 PM 55.4 °F - 28.4 °F 36% 29.91 in 10.0 mi East 9.2 mph - N/A   Clear
12:35 PM 53.6 °F - 28.4 °F 38% 29.90 in 10.0 mi ENE 5.8 mph - N/A   Clear
12:55 PM 57.2 °F - 30.2 °F 36% 29.89 in 10.0 mi NNE 11.5 mph 16.1 mph N/A   Clear
1:15 PM 55.4 °F - 28.4 °F 36% 29.88 in 10.0 mi ENE 9.2 mph - N/A   Clear
2:15 PM 57.2 °F - 30.2 °F 36% 29.87 in 10.0 mi East 10.4 mph - N/A   Partly Cloudy
2:35 PM 57.2 °F - 30.2 °F 36% 29.86 in 10.0 mi East 10.4 mph - N/A   Clear
2:55 PM 57.2 °F - 30.2 °F 36% 29.86 in 10.0 mi Calm Calm - N/A   Clear
3:15 PM 57.2 °F - 30.2 °F 36% 29.86 in 10.0 mi NNE 5.8 mph - N/A   Mostly Cloudy
3:35 PM 55.4 °F - 30.2 °F 38% 29.87 in 10.0 mi WNW 9.2 mph - N/A   Partly Cloudy
3:55 PM 55.4 °F - 30.2 °F 38% 29.86 in 10.0 mi North 4.6 mph - N/A   Clear
4:35 PM 51.8 °F - 28.4 °F 41% 29.87 in 10.0 mi NNE 8.1 mph - N/A   Clear
4:55 PM 53.6 °F - 28.4 °F 38% 29.88 in 10.0 mi NW 3.5 mph - N/A   Mostly Cloudy
5:35 PM 51.8 °F - 28.4 °F 41% 29.89 in 10.0 mi NNE 8.1 mph - N/A   Mostly Cloudy
5:55 PM 51.8 °F - 30.2 °F 44% 29.88 in 10.0 mi NNE 10.4 mph - N/A   Scattered Clouds
6:15 PM 48.2 °F - 30.2 °F 50% 29.89 in 10.0 mi WNW 6.9 mph - N/A   Mostly Cloudy
6:35 PM 48.2 °F - 28.4 °F 46% 29.88 in 10.0 mi NNE 12.7 mph - N/A   Partly Cloudy
6:55 PM 53.6 °F - 28.4 °F 38% 29.88 in 10.0 mi WNW 19.6 mph - N/A   Clear
7:15 PM 57.2 °F - 28.4 °F 33% 29.87 in 10.0 mi West 19.6 mph 28.8 mph N/A   Clear
7:35 PM 57.2 °F - 28.4 °F 33% 29.86 in 10.0 mi WSW 20.7 mph 26.5 mph N/A   Clear
7:55 PM 57.2 °F - 28.4 °F 33% 29.87 in 10.0 mi SW 15.0 mph - N/A   Clear
8:15 PM 57.2 °F - 28.4 °F 33% 29.89 in 10.0 mi WSW 9.2 mph - N/A   Clear
8:35 PM 55.4 °F - 28.4 °F 36% 29.90 in 10.0 mi NNW 6.9 mph - N/A   Clear
8:55 PM 53.6 °F - 26.6 °F 35% 29.89 in 10.0 mi NNW 5.8 mph - N/A   Clear
9:15 PM 53.6 °F - 26.6 °F 35% 29.88 in 10.0 mi West 5.8 mph - N/A   Clear
9:35 PM 53.6 °F - 28.4 °F 38% 29.87 in 10.0 mi WSW 9.2 mph - N/A   Clear
9:55 PM 55.4 °F - 28.4 °F 36% 29.87 in 10.0 mi WSW 18.4 mph - N/A   Clear
10:15 PM 51.8 °F - 26.6 °F 38% 29.87 in 10.0 mi Calm Calm - N/A   Clear
10:35 PM 51.8 °F - 26.6 °F 38% 29.88 in 10.0 mi NE 5.8 mph - N/A   Clear
10:55 PM 51.8 °F - 26.6 °F 38% 29.88 in 10.0 mi North 6.9 mph 17.3 mph N/A   Clear
11:15 PM 53.6 °F - 26.6 °F 35% 29.89 in 10.0 mi Calm Calm - N/A   Clear
11:35 PM 51.8 °F - 26.6 °F 38% 29.89 in 10.0 mi Calm Calm - N/A   Clear
11:55 PM 48.2 °F - 26.6 °F 43% 29.89 in 10.0 mi East 9.2 mph - N/A   Clear